Погода в Амге

Погода в Амге : погода сейчас, прогноз погоды и архив. Всё, что Вы хотите узнать о погоде в Амге!

Хотите узнать прогноз погоды в Амге? Тогда Вам сюда: Погода в Амге

Поиск расширенной информации на нашем сайте:

Другие новости

Новости СМИ2

Главная страница сайта

Новости сайта

02.10.2013

Напоминаем, что на нашем новом сайте вы можете получить высокодетализированные прогнозы погоды по пунктам России, СНГ и мира (включающие важные для авиации метеовеличины, такие как направление и скорость ветра, видимость, явления погоды, количество и форма облачности, нижняя и верхняя граница облачности), а также ознакомиться с разнообразными материалами по авиационной метеорологии и подборкой полезных ссылок на эту тему.

Сайт Метеоцентр.Азия посвящён разработке технологий оптимизации авиаметеорологического обслуживания, включая проектирование и перспективное создание нескольких автоматизированных авиаметеорологических систем:
- система выпуска высокодетальных прогностических карт явлений погоды для нижнего воздушного пространства по России и ближнему зарубежью;
- система верификации прогнозов TAF (выпускаемых синоптиками официальных АМСГ РФ и ближнего зарубежья) и AUTOTAF (выпускаемых сайтом Метеоцентр.Азия) - выявление ошибок, онлайн-сопоставление с фактической погодой METAR, автоматическое внесение коррективов в прогнозы при резком отклонении фактической погоды от прогноза, подсчёт оправдываемости прогнозов по элементам и в целом;
- система обработки, анализа и отображения авиаметеорологической информации для применения провайдерами метеорологической информации.

Рекомендуем: Кофе с собой тишинка территория кофе.

Погода в Амге - сегодня

Время (UTC), дата Ветер
(°,м/с) 
Видим.   Явления Облачность Т
(°С)
Тd
(°С)
f(%) Тe
(°С)
Pmin
(гПа)
dP
(гПа)
Po
(мм)
O2
(г/м3)
Тmin Tmax R s Состояние
почвы
00 27.05.17 250 (З) 20000 м    10/6 600 м средняя, верхняя 
[Cu med, cong|Ac trans|Ci fib]
+12.9 +2.4 49 +12  1003.5  0.8  740  284  +9.7    0.9    влажная 
03 27.05.17 250 (З) 20000 м    10/4 600 м верхняя 
[Cu hum|Ci fib]
+15.2 -1.6 31 +15  1003.6  0.2  740  283           
06 27.05.17 270 (З) 20000 м    10/3 600 м верхняя 
[Cu hum|Ci fib]
+17.3 -4.1 23 +17  1003.2  -0.3  740  281           
09 27.05.17 300 (СЗ) 20000 м    6/1 600 м верхняя 
[Cu hum|Ci fib]
+17.8 -5.3 20 +18  1002.9  -0.2  739  280           
12 27.05.17 010 (С) 20000 м    8/0 верхняя 
[Ci fib]
+13.6 -1.5 35 +14  1004.2  1.1  740  284    +18.2       
15 27.05.17 350 (С) 20000 м    6/0 верхняя 
[Ci fib]
+3.2 -0.6 76 +4  1006  741  295           
18 27.05.17 330 (СЗ) 20000 м  местами туман поземный  10/0 верхняя 
[Ci fib]
-0.6 -2.7 86 1006.3  741  300           
21 27.05.17 тихо ()   20000 м    10/0 верхняя 
[Ci fib]
+3.9 -0.4 73 +4  1005.6  -0.4  741  294           
00 28.05.17 080 (В) 20000 м    5/0 верхняя 
[Ci fib]
+16.1 -4.4 24 +16  1003.9  -0.8  740  282  -0.6        сухая 
03 28.05.17 030 (СВ) 20000 м    10/0 средняя, верхняя 
[Ac trans|Ci fib]
+18 -3.9 22 +18  1001.8  -2  739  280           
06 28.05.17 040 (СВ) 6{10}  20000 м    10/0 средняя, верхняя 
[Ac trans|Cs]
+19.1 -3.7 21 +19  999.1  -2.6  737  278           
09 28.05.17 050 (СВ) 5{11}  20000 м    10/0 средняя 
[As op]
+17.6 -1 28 +18  998.4  -0.7  736  279           
12 28.05.17 040 (СВ) 20000 м    10/6 600 м кучево-дожд., средняя 
[Cb calv|As op]
+15.3 -1.4 32 +15  999  0.4  736  281    +19.5       
15 28.05.17 360 (С) 20000 м    10/8 600 м кучево-дожд., средняя 
[Cb calv|As op]
+13.2 -0.7 38 +12  998.1  -1  736  283           
18 28.05.17 050 (СВ) 20000 м  слаб. ливневой дождь  10/8 600 м кучево-дожд., средняя 
[Cb calv|As op]
+10.5 +5 69 +10  997.2  -1  735  284           
21 28.05.17 040 (СВ) 20000 м  {ливн. осадки}  10/9 600 м кучево-дожд., средняя 
[Cb calv|As op]
+9.6 +8.2 91 +8  996.5  -0.8  734  284           
03 29.05.17 080 (В) 20000 м  {ливн. осадки}  10/10 600 м кучево-дожд. 
[Cb calv]
+14.7 +8.8 68 +14  996.4  0.2  734  279           
09 29.05.17 080 (В) 5{13}  20000 м    8/6 600 м верхняя 
[Cu hum|Ci fib]
+16.7 +5.3 47 +17  998  1.1  736  279           
12 29.05.17 090 (В) 4{10}  20000 м    8/5 600 м средняя, верхняя 
[Sc|Ac trans|Ci fib]
+15.7 +2.3 40 +16  1000  1.9  737  281    +17.4  0.0     
15 29.05.17 090 (В) 20000 м    10/8 600 м средняя 
[Sc|Ac trans]
+13.4 +1.9 46 +14  1001.5  1.4  738  283           
18 29.05.17 090 (В) 20000 м    10/8 600 м средняя 
[Sc|Ac trans]
+10.4 +2.2 57 +11  1003.2  1.4  739  287           
21 29.05.17 110 (В) 20000 м    10/8 600 м кучево-дожд., средняя 
[Cb cap|Ac trans]
+11.6 +2.6 54 +11  1004.5  1.4  740  286           
00 30.05.17 120 (ЮВ) 7{11}  20000 м    10/6 600 м кучево-дожд., средняя, верхняя 
[Cb cap|Ac lent|Ci fib]
+13.2 +2.2 47 +12  1005.4  0.9  741  284  +10.4        сухая 
03 30.05.17 090 (В) 6{11}  20000 м    10/6 600 м средняя, верхняя 
[Sc diur, vesp|Ac lent|Ci fib]
+14.6 +2.2 43 +14  1005.4  0.1  741  283           
06 30.05.17 090 (В) 7{11}  20000 м    10/6 600 м средняя, верхняя 
[Sc diur, vesp|Ac As|Cs]
+15.5 +2 40 +15  1005.9  0.6  742  282           
Время (UTC), дата Ветер
(°,м/с) 
Видим.   Явления Облачность Т
(°С)
Тd
(°С)
f(%) Тe
(°С)
Pmin
(гПа)
dP
(гПа)
Po
(мм)
O2
(г/м3)
Тmin Tmax R s Состояние
почвы

Для получения пояснительной информации подведите курсор к названию столбца.

ПОГОДА в Амге - архив

Всё, что Вы хотите узнать о погоде в Амге - удобно и подробно!

Выберите нужную дату (начиная с 1 января 2015* года) и нажмите кнопку "Найти".
Будут отображены архивные сводки погоды по пункту Амга, начиная с указанной даты.


Отображать данные в формате CSV (для использования в таблицах Excel)


Внимание! Наш архив погоды предназначен исключительно для личного некоммерческого использования в познавательных целях. Если Вам необходимы официальные справки о состоянии погоды (для производственных, юридических, коммерческих и т.п. целей), обращайтесь в органы Росгидромета.

*Примечание: данная дата относится к архиву по метеостанциям СССР (Россия, СНГ, Балтия).
Архив по метеостанциям Зарубежной Европы и Азии (кроме Китая) хранится 10 дней, по другим регионам земного шара (Китай, Африка, Америка, Австралия, Океания) - 1 день.

Амга - район местоположения метеостанции


Название, широта, долгота, высота метеостанции:
Амга 60.9°ш. 132°д. 146 м над ур. моря [Российская Федерация]

Дополнительная информация

В oтличие oт бoльшинства пoгoдных сайтoв мы публикуем пoдрoбную метеoинфoрмацию в детальнoм прoфессиoнальнoм фoрмате.

Характеристики температуры и влажнoсти вoздуха измеряются на высoте 2 м в тени вдали oт зданий и деревьев.
Скoрoсть ветра измеряется на высoте 10 м (на урoвне рoста челoвека скoрoсть ветра ниже в 1.5-2 раза). Если метеoстанция нахoдится в гoрoде или в лесу, тo скoрoсть ветра занижена на 2-4 м/с пo сравнению с oткрытым местoм. Скoрoсть ветра над акватoриями крупных рек и oзёр, а также на вершинах хoлмoв на 2-5 м/с выше, чем в oбычных услoвиях.
Атмoсфернoе давление в разных тoчках местнoсти мoжет значительнo oтличаться oт давления на метеoстанции, в зависимoсти oт услoвий рельефа (при пoдъёме на 10 м давление пoнижается примернo на 1 мм рт.ст.).